Regional Weather Roundup
Issued by NWS Newport/Morehead, NC

Current Version | Previous Version | Graphics & Text | Print | Product List | Glossary On
Versions: 1 2 3 4 5 6 7 8 9 10 11 12 13 14 15 16 17 18 19 20 21 22 23 24 25 26 27 28 29 30 31 32 33 34 35 36 37 38 39 40 41 42 43 44 45 46 47 48 49 50
177 ASUS42 KMHX 280925 RWRMHX WEATHER ROUNDUP FOR EASTERN NORTH CAROLINA NATIONAL WEATHER SERVICE NEWPORT/MOREHEAD CITY NC 500 AM EDT FRI JUL 28 2017 NOTE: "FAIR" INDICATES FEW OR NO CLOUDS BELOW 12,000 FEET WITH NO SIGNIFICANT WEATHER AND/OR OBSTRUCTIONS TO VISIBILITY NCZ015>017-031-032-045>047-102-103-281000- NORTH COAST CITY SKY/WX TMP DP RH WIND PRES REMARKS EDENTON CLOUDY 79 74 83 SW9 29.87F ELIZABETH CITY CLOUDY 78 75 90 SW14 29.86S KITTY HAWK CLOUDY 78 70 75 SW3 29.86F MANTEO CLOUDY 78 72 80 SW15 29.88S $$ NCZ045>047-081-094-103-104-281000- CENTRAL COAST CITY SKY/WX TMP DP RH WIND PRES REMARKS FRISCO CLOUDY 80 75 84 SW10 29.90S $$ NCZ095-097-098-100-101-281000- SOUTHERN COAST CITY SKY/WX TMP DP RH WIND PRES REMARKS BEAUFORT CLOUDY 80 76 87 SW13 29.90S CEDAR ISLAND NOT AVBL JACKSONVILLE PTCLDY 76 75 97 SW3 29.90S PINEY ISLAND CLOUDY N/A N/A N/A SW6 29.89F WILMINGTON PTCLDY 76 75 97 S3 29.89F $$ NCZ011>013-027>030-043-044-078>080-089-090>093-098-281000- COASTAL PLAIN CITY SKY/WX TMP DP RH WIND PRES REMARKS AHOSKIE N/A 74 72 93 CALM 29.86S CLINTON MOCLDY 74 74 100 CALM 29.90F ELIZABETHTOWN NOT AVBL GOLDSBORO NOT AVBL GREENVILLE CLOUDY 77 73 88 SW6 29.90S HAVELOCK CLOUDY 77 74 90 SW6 29.91S KENANSVILLE MOCLDY 73 73 100 CALM 29.90S KINSTON CLOUDY 76 73 90 S12G17 29.89F NEW BERN PTCLDY 76 75 97 SW5 29.91F RICHLANDS PTCLDY 73 73 100 CALM 29.91S ROCKY MOUNT CLOUDY 75 74 96 SW3 29.88S WASHINGTON CLOUDY 76 73 88 SW7 29.89S WHITEVILLE PTCLDY 74 73 96 CALM 29.90S $$ AMZ130-135-150-152-154-156-158-170-250-252-270-ANZ085-086-088-633-658-670-281000- MARINE OBSERVATIONS STATION/POSITION TIME TEMP WIND PRES WAVE SWELL AIR SEA DIR/SP/G HT/PER HT/PER (UTC) (F) (DEG/KT/KT) (MB) (FT/S) (FT/S) CHESAPEAKE LIGHT NOT AVBL 64 E VA BEACH 0850 78 77 230/ 16/ 19 1011.3 4/ 5 2/ 8 DUCK 0900 79 65 210/ 13/ 16 1010.9 2 E DUCK 0900 69 N/A 2/ 8 OREGON INLET 0900 80 79 200/ 19/ 21 1011.5 13E OREGON INLT 0848 77 N/A 3/ 4 2/ 9 HATTERAS CG 0900 80 80 210/ 9/ 14 1012.1 DIAMOND BUOY 0850 81 83 200/ 17/ 21 1012.1 3/ 4 2/ 8 CAPE LOOKOUT 0900 80 230/ 8/ 11 1012.2 BEAUFORT LAB 0900 80 80 220/ 5/ 8 1011.8 30 SE NEW RVR IN 0908 81 83 240/ 12/ 16 1012.6 30 SE NEW RVR IN 0843 83 N/A 3/ 4 27 SE WRIGHTSVLE 0908 81 82 220/ 12/ 17 1012.3 5 SE WRIGHTSVLE 0908 81 82 220/ 12/ 19 1012.3 225 S CAPE HAT 0850 82 83 230/ 10/ 10 1013.9 3/ 7 2/ 7 41 SE CHARLESTON 0910 81 81 200/ 16/ 19 1012.0 $$

USA.gov is the U.S. government's official web portal to all federal, state and local government web resources and services.